Theta_e
338 348 358 356 355 354 353 353 352 352 352 352 352 353 353 353 352 352 352 351 350 347 346 345 345 344 343 343 344 345 345 345 344 342 340 338 349 346 345 342 346 349 357
341 348 358 356 355 355 354 353 352 352 352 352 351 351 351 351 350 350 350 350 348 346 345 344 344 344 344 345 346 346 347 347 347 346 345 345 346 352 347 344 344 351 355
340 347 352 357 356 355 355 354 353 353 352 352 351 350 349 348 348 348 349 348 347 346 345 343 343 344 345 345 345 347 348 349 349 348 350 340 350 354 352 346 345 345 350
341 346 348 356 356 355 355 354 352 351 351 351 350 349 348 348 346 346 347 346 345 345 344 344 344 342 343 341 340 341 342 344 348 352 341 333 336 354 353 349 347 344 343
340 344 356 357 356 356 355 354 353 352 351 350 349 349 349 348 347 346 347 346 343 342 342 343 342 339 339 339 338 338 340 343 346 341 333 334 334 353 351 350 348 347 345
338 344 357 357 357 357 355 354 353 352 351 350 350 349 349 350 350 349 347 347 345 341 341 342 342 336 337 338 337 338 338 342 343 328 332 337 347 350 352 349 349 349 346
337 345 354 357 357 356 355 353 352 352 351 351 351 351 351 351 351 350 350 349 347 343 340 341 341 334 335 336 336 335 335 337 328 325 327 342 345 350 351 352 350 349 349
336 340 352 356 356 355 355 354 353 353 352 352 352 352 352 352 352 351 351 350 349 348 343 343 343 336 335 334 333 332 332 335 328 326 326 336 340 343 345 350 349 349 348
339 340 346 351 354 356 356 355 354 353 352 352 351 352 352 352 352 352 351 351 350 350 349 346 344 338 334 333 331 330 332 335 330 326 325 331 338 337 338 342 347 348 347
340 341 343 345 349 350 352 355 355 352 352 351 351 351 352 352 354 352 352 353 353 353 351 350 340 337 335 334 330 329 333 335 330 325 327 331 333 332 334 337 340 344 348
340 342 344 345 345 347 347 353 350 352 349 352 351 348 350 349 346 341 349 350 353 353 350 347 340 337 337 335 333 332 334 330 326 326 328 331 330 330 331 333 335 337 342
340 342 347 352 352 350 346 349 349 348 344 342 342 341 345 347 349 350 348 352 350 352 349 346 340 337 336 331 331 333 329 328 327 327 329 331 328 329 330 331 331 333 336
346 349 348 349 352 351 350 348 346 349 345 343 344 348 342 337 341 346 344 343 346 347 344 342 338 334 333 331 332 330 330 329 328 329 330 330 326 328 330 330 330 331 332
343 344 345 347 352 353 351 346 345 348 342 342 350 350 352 349 349 346 344 343 341 342 341 343 340 335 336 336 333 330 330 330 329 329 330 330 327 326 328 329 330 329 331
342 344 345 351 354 353 351 348 346 347 346 345 345 346 352 354 353 352 345 345 342 339 339 337 339 335 336 335 333 331 331 331 332 331 330 334 330 328 328 328 329 330 330
344 344 349 349 353 351 350 350 348 347 347 344 345 348 350 352 355 346 345 343 341 341 340 337 335 335 336 334 333 333 333 332 333 332 330 331 338 332 329 328 329 330 331
343 348 350 347 350 351 350 348 347 345 344 344 345 349 350 352 352 350 350 343 343 347 343 340 338 339 334 334 333 334 333 332 331 331 332 329 329 337 334 329 330 330 331
345 346 349 349 349 349 347 346 344 344 344 345 347 346 347 346 346 348 350 345 339 343 342 338 335 333 329 329 328 330 331 331 330 329 330 328 328 326 331 335 329 329 331
345 344 344 345 345 347 348 347 346 349 346 346 342 344 342 340 339 341 345 343 344 346 342 339 332 329 327 329 329 330 328 326 326 325 327 326 326 325 325 330 333 330 331
343 344 345 345 346 347 344 347 341 340 342 343 337 338 338 336 336 336 333 333 330 330 329 329 329 335 333 331 327 325 327 325 327 325 325 323 322 323 323 326 326 325 332
341 339 338 338 338 338 334 333 334 334 338 335 336 336 333 332 331 334 330 331 331 330 332 331 328 327 325 326 322 321 321 323 323 324 322 321 321 321 322 323 324 325 325
335 336 335 333 334 331 329 330 328 328 331 331 334 333 330 328 327 324 327 327 327 323 328 326 325 320 321 322 316 315 309 314 318 319 319 320 320 320 320 324 322 326 325
332 332 332 332 332 332 333 329 329 329 328 324 325 324 326 325 324 323 322 322 322 323 318 321 320 320 315 318 321 313 307 308 312 317 320 317 319 318 322 322 323 323 326
326 328 329 330 330 330 331 329 329 321 319 320 320 321 321 322 322 322 321 322 322 320 319 317 317 318 317 315 317 320 321 317 309 307 314 317 318 318 321 320 320 322 324
325 325 328 329 329 329 329 327 322 321 319 319 319 322 326 324 322 321 322 321 321 319 320 320 319 319 318 317 316 317 317 314 316 313 307 310 316 318 317 319 319 321 324
326 325 326 327 327 327 326 324 322 320 320 318 318 317 317 318 319 322 320 321 322 321 319 321 320 321 320 320 319 317 317 312 312 311 309 310 312 313 318 318 318 323 321
Wind_Speed
14 18 15 14 11 8 6 4 3 3 3 2 3 3 4 5 6 6 7 7 8 9 9 9 9 10 9 9 8 8 7 6 6 6 7 4 4 3 2 4 7 5 11
17 17 15 14 11 9 7 5 3 2 2 2 2 3 3 3 4 5 5 6 6 7 7 8 8 9 9 9 10 10 9 7 6 8 11 12 7 7 5 3 7 9 9
16 16 15 12 10 8 7 6 6 5 4 3 2 2 2 2 3 4 4 5 5 5 6 7 7 7 8 8 9 10 10 10 9 11 13 11 13 12 10 4 5 6 5
14 14 14 12 10 8 7 5 4 3 2 2 2 2 3 2 2 3 3 3 3 4 5 5 6 7 7 8 9 10 11 13 14 15 14 3 7 10 9 7 4 2 1
11 13 16 14 11 10 8 7 6 5 3 2 3 3 4 3 0 1 1 1 1 1 2 3 4 5 5 5 7 8 10 14 17 16 7 12 4 10 4 4 4 4 3
12 15 17 15 11 10 8 7 7 5 5 4 3 2 3 5 6 5 3 3 1 0 0 1 2 3 4 5 7 9 11 15 21 5 8 7 14 12 8 0 1 2 3
9 16 14 14 10 8 6 5 5 4 4 4 3 4 4 5 6 7 7 6 5 3 2 2 2 1 3 4 5 7 11 15 16 10 8 12 12 14 11 8 4 3 2
7 6 14 12 9 6 6 5 4 4 3 5 6 5 5 6 7 7 9 9 8 7 5 5 5 3 2 2 3 4 8 14 16 8 9 14 14 14 13 11 6 4 4
8 5 9 14 12 9 10 9 6 4 2 7 6 7 8 9 11 11 11 11 11 10 9 8 8 6 3 1 1 4 9 15 14 5 7 11 14 14 13 12 11 7 4
7 5 5 5 12 12 18 13 9 4 4 4 8 8 9 12 15 16 16 15 14 12 11 9 9 7 5 5 4 5 13 16 15 6 7 8 13 11 11 11 12 11 9
6 5 3 7 6 4 2 13 11 6 5 5 5 5 7 8 3 21 24 5 9 13 11 11 12 10 9 10 12 9 13 7 8 5 5 12 11 9 9 10 11 12 12
8 6 8 8 10 10 8 2 2 5 4 4 4 4 4 6 11 15 13 9 14 16 11 15 15 11 11 11 10 12 8 5 6 4 6 11 8 8 10 10 10 11 12
14 12 10 8 10 10 8 8 4 2 4 3 3 7 6 2 11 10 7 6 10 12 5 7 9 8 14 11 7 4 6 7 4 3 9 10 4 6 9 11 11 12 12
14 9 12 11 9 8 7 6 4 1 3 3 5 7 3 5 10 10 7 8 7 4 14 16 9 10 6 7 8 10 9 8 5 5 2 11 7 6 8 11 12 11 13
12 12 12 10 8 7 7 7 4 4 4 6 6 5 4 7 8 7 7 8 7 6 9 4 6 4 7 9 11 11 9 9 9 5 6 8 11 10 9 10 12 14 12
10 12 11 9 8 9 7 6 5 4 7 7 7 5 7 7 7 6 6 7 9 4 7 8 8 8 6 7 8 10 6 7 11 10 8 7 8 12 13 11 11 12 14
11 10 12 10 10 9 8 9 5 5 8 6 6 6 7 7 9 8 7 7 8 9 11 7 9 8 9 9 8 10 5 8 4 8 4 9 11 14 15 13 14 12 13
12 12 10 9 10 11 11 9 9 6 8 5 5 5 8 10 10 8 6 6 2 6 9 6 7 6 7 6 5 5 6 8 8 8 9 10 11 11 6 13 8 7 12
12 12 12 12 13 13 11 10 9 10 7 7 6 7 11 10 10 9 7 6 7 5 6 7 7 3 4 7 5 9 3 3 5 10 12 12 14 11 10 12 8 7 17
12 12 13 13 14 14 9 8 10 10 11 9 9 9 12 12 15 11 7 8 5 4 4 2 6 8 7 8 9 8 9 9 6 9 10 13 11 10 10 8 8 9 8
14 14 14 13 15 12 10 10 10 9 8 7 6 8 9 9 10 10 11 8 9 6 7 6 6 10 7 8 3 7 11 11 10 8 1 9 9 10 9 4 4 4 8
13 12 14 14 14 14 12 10 11 11 6 7 4 7 9 12 11 11 10 11 11 11 10 7 9 9 11 8 8 9 10 10 4 5 3 4 7 8 9 6 5 4 7
11 12 14 14 14 14 17 11 10 10 9 10 10 10 8 5 7 10 10 10 11 10 9 11 9 11 10 10 10 3 6 6 7 6 5 4 6 8 5 8 8 8 6
12 13 14 14 14 14 16 13 14 12 11 10 10 9 8 7 7 9 9 6 4 8 8 8 7 8 7 9 7 4 6 6 6 6 6 4 6 8 6 8 7 6 9
12 12 12 12 13 15 15 15 13 14 11 9 9 10 8 7 8 11 10 7 5 6 5 5 5 6 7 7 6 8 7 8 6 5 8 6 4 2 6 6 8 4 6
12 12 10 12 13 14 14 15 15 14 12 10 11 9 9 9 9 13 11 7 7 6 6 5 6 8 9 8 6 7 6 4 8 5 7 8 8 5 1 2 4 3 6
Wind_Direction
125 131 150 160 170 170 174 175 161 142 131 130 117 99 88 84 80 74 70 69 69 65 61 56 55 55 52 46 36 31 29 19 359 338 301 270 188 117 78 342 325 266 60
118 139 153 158 169 169 172 173 164 153 168 166 148 120 99 85 77 71 69 64 64 65 65 63 51 42 37 29 16 6 2 354 328 302 288 261 188 145 120 358 11 51 52
120 135 159 159 169 171 171 173 173 179 184 192 186 146 110 78 63 59 57 57 59 58 56 51 48 42 32 26 18 7 353 337 307 286 276 277 155 160 134 101 35 36 49
120 132 150 158 167 170 178 178 185 215 242 243 230 205 171 146 98 57 46 43 47 52 53 54 48 45 50 41 26 11 355 329 313 299 276 30 18 124 128 126 115 83 55
142 144 124 156 170 179 184 186 190 197 205 240 283 313 322 320 291 101 57 24 54 65 69 72 76 75 66 53 31 8 348 322 309 289 5 36 341 50 102 125 170 166 54
147 126 141 155 171 183 192 195 202 208 206 207 232 252 287 303 310 300 277 257 237 279 15 117 133 115 89 49 31 10 346 322 314 328 68 57 42 23 15 219 6 58 39
141 122 148 157 172 183 200 218 223 229 258 258 247 256 269 272 279 280 281 275 262 246 259 256 222 138 82 55 32 6 340 320 303 10 343 59 55 33 23 3 320 295 225
132 133 121 150 170 186 201 221 232 245 253 278 283 278 279 285 277 269 264 260 253 247 240 242 216 191 138 72 34 360 321 304 302 49 328 89 51 36 21 17 5 313 286
123 168 144 167 174 191 204 198 201 226 193 304 293 298 295 282 276 264 249 249 252 244 239 233 202 190 195 165 23 319 296 290 294 30 316 53 43 21 10 7 4 353 285
135 148 187 189 193 195 186 189 179 196 222 128 285 280 282 279 265 276 242 225 229 228 232 209 192 185 211 223 212 253 276 282 262 13 42 66 45 15 356 355 353 346 335
121 100 345 331 315 293 304 159 167 170 179 170 240 8 323 317 4 283 248 105 197 219 227 197 187 194 210 225 220 226 259 264 332 29 62 69 41 8 354 347 342 337 332
120 76 45 6 343 314 325 15 330 180 312 51 337 337 321 337 290 281 282 240 216 207 209 195 193 205 219 243 204 220 241 334 310 335 77 80 50 354 337 333 329 322 318
46 27 14 10 359 337 345 341 344 18 264 260 144 274 267 358 301 297 296 285 224 165 89 234 219 217 225 248 271 259 281 279 304 297 106 111 85 326 317 315 314 309 305
32 10 17 15 23 18 352 324 5 190 221 258 228 243 327 283 266 267 288 298 284 210 166 219 206 216 222 268 282 291 286 284 281 334 110 140 168 243 282 299 301 301 297
15 13 21 23 32 27 354 355 327 328 199 238 236 324 295 263 268 297 284 287 293 311 305 258 220 241 228 223 240 247 260 285 306 264 277 186 191 217 248 275 289 295 290
28 15 15 21 24 11 5 357 315 309 317 316 319 341 316 281 265 278 277 273 287 278 286 305 305 298 281 256 245 249 227 245 266 300 284 303 223 210 223 243 267 280 290
31 12 13 20 20 4 354 344 322 302 326 299 303 18 315 296 295 290 301 330 347 338 323 300 277 267 269 263 297 328 267 265 262 267 301 290 279 205 215 226 244 271 285
31 23 9 11 9 358 345 328 325 331 320 351 360 357 353 326 340 329 321 317 298 249 284 333 339 335 14 352 358 344 312 245 271 263 254 272 287 301 298 232 237 261 282
35 24 22 15 9 349 347 333 326 335 43 6 12 26 5 351 5 345 356 356 353 319 331 334 330 8 5 304 294 267 265 280 254 259 286 308 303 288 271 267 259 249 267
36 31 18 24 12 343 341 339 351 346 15 11 33 20 2 4 6 357 357 7 354 3 340 316 280 279 274 263 259 282 290 257 234 267 262 276 278 298 305 348 322 303 339
46 39 28 30 12 356 11 5 1 358 352 6 29 26 11 9 3 1 348 339 342 326 296 309 305 298 277 295 328 268 278 304 257 235 163 283 298 304 307 320 305 317 297
48 40 32 23 29 16 0 10 359 345 360 359 57 70 41 20 7 354 352 334 359 328 316 357 342 330 310 317 318 309 297 302 46 68 334 277 283 302 289 300 266 282 289
55 42 38 32 25 30 3 15 4 352 354 3 356 12 356 27 3 5 348 349 345 321 335 354 342 325 318 321 320 305 302 285 328 308 201 261 292 282 310 306 283 277 258
33 48 43 34 26 25 23 13 0 358 358 352 355 7 339 26 11 13 10 9 351 323 25 356 347 317 311 295 299 295 308 273 293 306 301 202 229 263 248 272 275 265 269
29 38 43 37 29 22 19 16 4 7 356 359 350 357 350 24 27 21 3 7 348 352 7 316 299 330 292 310 307 322 304 290 293 255 287 295 215 242 293 224 254 308 308
34 23 43 26 29 19 17 14 14 5 2 8 352 360 352 357 8 28 359 352 349 359 330 316 314 315 318 311 314 315 313 302 304 319 295 301 298 298 36 304 340 348 305